Weather History for Crestview, FL

Change the Weather History Date:

Friday, April 26, 2013

  Actual Average Record
Temperature  
Mean Temperature 66 °F -  
Max Temperature 84 °F - - ()
Min Temperature 49 °F - - ()
Cooling Degree Days 1    
Growing Degree Days 16 (Base 50)    
Moisture  
Dew Point 45 °F    
Average Humidity 50    
Maximum Humidity 83    
Minimum Humidity 26    
Precipitation  
Precipitation 0.00 in - - ()
Sea Level Pressure  
Sea Level Pressure 30.26 in    
Wind  
Wind Speed 5 mph (NE)    
Max Wind Speed 12 mph    
Max Gust Speed -    
Visibility 10 miles    
Events      
T = Trace of Precipitation, MM = Missing Value Source: NWS Daily Summary

Daily Weather History Graph

Daily Weather History Graph

Search for Another Location

Airport:

Trip Planner

Search our weather history database for the weather conditions in past years. The results will help you decide how hot, cold, wet, or windy it might be!

Date:

Astronomy

Apr. 26, 2013 Rise Set
Actual Time 6:06 AM CDT 7:21 PM CDT
Civil Twilight 5:41 AM CDT 7:46 PM CDT
Nautical Twilight 5:11 AM CDT 8:16 PM CDT
Astronomical Twilight 4:40 AM CDT 8:48 PM CDT
Moon 8:37 PM CDT (4/26) 6:37 AM CDT (4/26)
Length of Visible Light 14h 05m
Length of Day
13h 14m
Full, 99% of the Moon is Illuminated
Apr 26
Full
May 2
Last Quarter
May 9
New
May 17
First Quarter
May 24
Full

Hourly Weather History & Observations

Time (CDT) Temp. Dew Point Humidity Pressure Visibility Wind Dir Wind Speed Gust Speed Precip Events Conditions
12:58 AM 56.7 °F 40.1 °F 54% 30.27 in 10.0 mi NNE 6.9 mph - N/A   Clear
1:58 AM 54.9 °F 39.7 °F 57% 30.25 in 10.0 mi NNE 3.5 mph - N/A   Clear
2:58 AM 51.6 °F 40.6 °F 66% 30.24 in 10.0 mi NNE 4.6 mph - N/A   Clear
3:58 AM 50.5 °F 40.6 °F 69% 30.24 in 10.0 mi NNE 3.5 mph - N/A   Clear
4:58 AM 50.9 °F 39.9 °F 66% 30.25 in 10.0 mi NNE 3.5 mph - N/A   Clear
5:58 AM 49.6 °F 39.9 °F 69% 30.26 in 10.0 mi NNE 3.5 mph - N/A   Clear
6:58 AM 49.5 °F 41.9 °F 75% 30.29 in 10.0 mi NNE 4.6 mph - N/A   Clear
7:58 AM 57.6 °F 40.5 °F 53% 30.30 in 10.0 mi NE 6.9 mph - N/A   Clear
8:55 AM 65.5 °F 35.8 °F 33% 30.30 in 10.0 mi ENE 11.5 mph - N/A   Partly Cloudy
9:55 AM 71.1 °F 35.8 °F 27% 30.30 in 10.0 mi Variable 4.6 mph - N/A   Partly Cloudy
10:55 AM 74.3 °F 37.0 °F 26% 30.32 in 10.0 mi ENE 5.8 mph - N/A   Scattered Clouds
11:55 AM 77.7 °F 41.5 °F 27% 30.31 in 10.0 mi Variable 4.6 mph - N/A   Scattered Clouds
12:55 PM 80.4 °F 45.9 °F 30% 30.29 in 10.0 mi NW 4.6 mph - N/A   Mostly Cloudy
1:56 PM 82.8 °F 48.2 °F 30% 30.27 in 10.0 mi Variable 6.9 mph - N/A   Mostly Cloudy
2:55 PM 82.8 °F 47.5 °F 29% 30.24 in 10.0 mi Variable 5.8 mph - N/A   Mostly Cloudy
3:55 PM 83.3 °F 46.2 °F 27% 30.21 in 10.0 mi WNW 4.6 mph - N/A   Mostly Cloudy
4:55 PM 82.0 °F 49.8 °F 32% 30.22 in 10.0 mi South 9.2 mph - N/A   Mostly Cloudy
5:55 PM 80.2 °F 49.6 °F 34% 30.22 in 10.0 mi South 9.2 mph - N/A   Mostly Cloudy
6:55 PM 76.6 °F 52.0 °F 42% 30.22 in 10.0 mi SSW 8.1 mph - N/A   Scattered Clouds
7:55 PM 69.3 °F 53.6 °F 57% 30.24 in 10.0 mi South 3.5 mph - N/A   Partly Cloudy
8:55 PM 64.8 °F 54.1 °F 68% 30.24 in 10.0 mi South 4.6 mph - N/A   Partly Cloudy
9:55 PM 63.0 °F 53.6 °F 71% 30.23 in 10.0 mi South 5.8 mph - N/A   Partly Cloudy
10:55 PM 61.5 °F 52.9 °F 73% 30.25 in 10.0 mi South 3.5 mph - N/A   Partly Cloudy
11:55 PM 57.7 °F 52.7 °F 83% 30.26 in 10.0 mi Calm Calm - N/A   Partly Cloudy